| time (UTC) | temp C | wind direction | speed KPH | gust KPH | rain 1hr cm | rain 24hr cm | rain mn cm | humidity % | barometer mb |
| 20260509030050 | 0 | 98 | 0.0 | 0.0 | 0.00 | 0.00 | 0.00 | 88 | 1023.6 |
| 20260509024558 | 0 | 98 | 0.0 | 0.0 | 0.00 | 0.00 | 0.00 | 87 | 1023.6 |
| 20260509023048 | 0 | 98 | 0.0 | 0.0 | 0.00 | 0.00 | 0.00 | 87 | 1023.6 |
| 20260509021546 | 0 | 98 | 0.0 | 0.0 | 0.00 | 0.00 | 0.00 | 87 | 1023.7 |
| 20260509020052 | 0 | 98 | 0.0 | 0.0 | 0.00 | 0.00 | 0.00 | 86 | 1023.8 |
| 20260509014544 | 0 | 98 | 0.0 | 0.0 | 0.00 | 0.00 | 0.00 | 87 | 1023.9 |
| 20260509013042 | 0 | 98 | 0.0 | 0.0 | 0.00 | 0.00 | 0.00 | 86 | 1024.0 |
| 20260509011545 | 0 | 98 | 0.0 | 0.0 | 0.00 | 0.00 | 0.00 | 86 | 1024.0 |
| 20260509010041 | 0 | 98 | 0.0 | 0.0 | 0.00 | 0.00 | 0.00 | 86 | 1024.0 |
| 20260509004539 | 0 | 98 | 0.0 | 0.0 | 0.00 | 0.00 | 0.00 | 86 | 1024.0 |
| 20260509003037 | 0 | 98 | 0.0 | 0.0 | 0.00 | 0.00 | 0.00 | 86 | 1024.2 |
| 20260509001536 | 0 | 98 | 0.0 | 0.0 | 0.00 | 0.00 | 0.00 | 85 | 1024.3 |
| 20260509000033 | 0 | 98 | 0.0 | 0.0 | 0.00 | 0.00 | 0.00 | 83 | 1024.3 |
| 20260508234532 | 0 | 98 | 0.0 | 0.0 | 0.00 | 0.00 | 0.00 | 82 | 1024.4 |
| 20260508233034 | 1 | 98 | 0.0 | 0.0 | 0.00 | 0.00 | 0.00 | 81 | 1024.4 |
| 20260508231526 | 1 | 98 | 0.0 | 0.0 | 0.00 | 0.00 | 0.00 | 79 | 1024.5 |
| 20260508230022 | 2 | 98 | 0.0 | 0.0 | 0.00 | 0.00 | 0.00 | 77 | 1024.5 |
| 20260508224522 | 2 | 98 | 0.0 | 0.0 | 0.00 | 0.00 | 0.00 | 74 | 1024.5 |
| 20260508223015 | 3 | 98 | 0.0 | 0.0 | 0.00 | 0.00 | 0.00 | 72 | 1024.5 |
| 20260508221511 | 5 | 98 | 0.0 | 4.8 | 0.00 | 0.00 | 0.00 | 67 | 1024.5 |
| 20260508220007 | 5 | 98 | 0.0 | 1.6 | 0.00 | 0.00 | 0.00 | 66 | 1024.5 |
| 20260508214521 | 6 | 98 | 0.0 | 0.0 | 0.00 | 0.00 | 0.00 | 62 | 1024.4 |
| 20260508213005 | 7 | 98 | 0.0 | 4.8 | 0.00 | 0.00 | 0.00 | 61 | 1024.5 |
| 20260508211504 | 7 | 132 | 1.6 | 4.8 | 0.00 | 0.00 | 0.00 | 61 | 1024.3 |
| 20260508210003 | 7 | 106 | 0.0 | 3.2 | 0.00 | 0.00 | 0.00 | 64 | 1024.3 |
| 20260508204502 | 7 | 154 | 0.0 | 4.8 | 0.00 | 0.00 | 0.00 | 63 | 1024.2 |
| 20260508203001 | 7 | 155 | 0.0 | 4.8 | 0.00 | 0.00 | 0.00 | 61 | 1024.2 |
| 20260508201600 | 7 | 159 | 1.6 | 4.8 | 0.00 | 0.00 | 0.00 | 58 | 1024.0 |
| 20260508200059 | 8 | 162 | 1.6 | 6.4 | 0.00 | 0.00 | 0.00 | 54 | 1023.9 |
| 20260508194607 | 8 | 144 | 1.6 | 4.8 | 0.00 | 0.00 | 0.00 | 52 | 1023.7 |
| 20260508193118 | 8 | 161 | 0.0 | 4.8 | 0.00 | 0.00 | 0.00 | 53 | 1023.7 |
| 20260508191605 | 9 | 140 | 1.6 | 6.4 | 0.00 | 0.00 | 0.00 | 52 | 1023.4 |
| 20260508190109 | 9 | 118 | 4.8 | 12.9 | 0.00 | 0.00 | 0.00 | 50 | 1023.4 |
| 20260508184552 | 10 | 130 | 4.8 | 11.3 | 0.00 | 0.00 | 0.00 | 44 | 1023.3 |
| 20260508183051 | 10 | 136 | 6.4 | 14.5 | 0.00 | 0.00 | 0.00 | 39 | 1023.2 |
| 20260508181554 | 11 | 134 | 4.8 | 12.9 | 0.00 | 0.00 | 0.00 | 38 | 1023.2 |
| 20260508180049 | 11 | 150 | 3.2 | 11.3 | 0.00 | 0.00 | 0.00 | 39 | 1023.0 |
| 20260508174550 | 11 | 128 | 6.4 | 12.9 | 0.00 | 0.00 | 0.00 | 40 | 1023.0 |
| 20260508173047 | 12 | 84 | 4.8 | 12.9 | 0.00 | 0.00 | 0.00 | 44 | 1023.0 |
| 20260508171547 | 12 | 153 | 6.4 | 12.9 | 0.00 | 0.00 | 0.00 | 44 | 1023.0 |
| 20260508170046 | 12 | 144 | 8.0 | 16.1 | 0.00 | 0.00 | 0.00 | 44 | 1022.8 |
| 20260508164544 | 12 | 144 | 9.7 | 16.1 | 0.00 | 0.00 | 0.00 | 43 | 1022.7 |
| 20260508163057 | 12 | 83 | 3.2 | 19.3 | 0.00 | 0.00 | 0.00 | 44 | 1022.7 |
| 20260508161552 | 13 | 104 | 8.0 | 19.3 | 0.00 | 0.00 | 0.00 | 41 | 1022.7 |
| 20260508160040 | 13 | 134 | 9.7 | 17.7 | 0.00 | 0.00 | 0.00 | 38 | 1022.8 |
| 20260508154540 | 13 | 120 | 9.7 | 19.3 | 0.00 | 0.00 | 0.00 | 35 | 1022.7 |
| 20260508153053 | 13 | 134 | 8.0 | 20.9 | 0.00 | 0.00 | 0.00 | 35 | 1022.8 |
| 20260508151538 | 13 | 143 | 11.3 | 19.3 | 0.00 | 0.00 | 0.00 | 32 | 1022.8 |
| 20260508150037 | 13 | 157 | 8.0 | 17.7 | 0.00 | 0.00 | 0.00 | 31 | 1022.8 |
| 20260508144536 | 13 | 117 | 9.7 | 19.3 | 0.00 | 0.00 | 0.00 | 37 | 1022.9 |
| 20260508143055 | 13 | 75 | 12.9 | 22.5 | 0.00 | 0.00 | 0.00 | 40 | 1023.0 |
| 20260508141538 | 13 | 85 | 14.5 | 29.0 | 0.00 | 0.00 | 0.00 | 39 | 1023.0 |
| 20260508140034 | 13 | 89 | 8.0 | 17.7 | 0.00 | 0.00 | 0.00 | 43 | 1023.1 |
| 20260508134537 | 13 | 76 | 9.7 | 19.3 | 0.00 | 0.00 | 0.00 | 42 | 1023.0 |
| 20260508133134 | 14 | 121 | 9.7 | 19.3 | 0.00 | 0.00 | 0.00 | 42 | 1023.0 |
| 20260508131531 | 14 | 129 | 9.7 | 17.7 | 0.00 | 0.00 | 0.00 | 40 | 1023.0 |
| 20260508130031 | 14 | 97 | 8.0 | 16.1 | 0.00 | 0.00 | 0.00 | 41 | 1023.2 |
| 20260508124533 | 14 | 118 | 8.0 | 25.7 | 0.00 | 0.00 | 0.00 | 43 | 1023.1 |
| 20260508123030 | 14 | 76 | 9.7 | 19.3 | 0.00 | 0.00 | 0.00 | 39 | 1023.2 |
| 20260508121529 | 14 | 138 | 9.7 | 25.7 | 0.00 | 0.00 | 0.00 | 40 | 1023.2 |
| 20260508120029 | 14 | 109 | 11.3 | 20.9 | 0.00 | 0.00 | 0.00 | 37 | 1023.1 |
| 20260508114528 | 13 | 193 | 14.5 | 25.7 | 0.00 | 0.00 | 0.00 | 39 | 1023.1 |
| 20260508113126 | 14 | 94 | 6.4 | 24.1 | 0.00 | 0.00 | 0.00 | 43 | 1023.1 |
| 20260508111525 | 13 | 114 | 12.9 | 20.9 | 0.00 | 0.00 | 0.00 | 42 | 1023.2 |
| 20260508110031 | 13 | 111 | 11.3 | 20.9 | 0.00 | 0.00 | 0.00 | 41 | 1023.2 |
| 20260508104523 | 13 | 70 | 11.3 | 20.9 | 0.00 | 0.00 | 0.00 | 42 | 1023.3 |
| 20260508103036 | 13 | 115 | 8.0 | 17.7 | 0.00 | 0.00 | 0.00 | 42 | 1023.2 |
| 20260508101518 | 13 | 148 | 8.0 | 30.6 | 0.00 | 0.00 | 0.00 | 42 | 1023.1 |
| 20260508100017 | 13 | 98 | 11.3 | 19.3 | 0.00 | 0.00 | 0.00 | 37 | 1023.1 |
| 20260508094617 | 13 | 101 | 8.0 | 19.3 | 0.00 | 0.00 | 0.00 | 36 | 1023.0 |
| 20260508093011 | 13 | 145 | 8.0 | 19.3 | 0.00 | 0.00 | 0.00 | 44 | 1023.0 |
| 20260508091510 | 13 | 108 | 8.0 | 17.7 | 0.00 | 0.00 | 0.00 | 45 | 1023.0 |
| 20260508090003 | 13 | 84 | 8.0 | 17.7 | 0.00 | 0.00 | 0.00 | 52 | 1022.9 |
| 20260508084559 | 13 | 61 | 9.7 | 17.7 | 0.00 | 0.00 | 0.00 | 49 | 1022.8 |
| 20260508083056 | 13 | 90 | 9.7 | 17.7 | 0.00 | 0.00 | 0.00 | 59 | 1022.7 |
| 20260508081610 | 12 | 72 | 8.0 | 12.9 | 0.00 | 0.00 | 0.00 | 63 | 1022.8 |
| 20260508080049 | 12 | 84 | 4.8 | 14.5 | 0.00 | 0.00 | 0.00 | 58 | 1022.7 |
| 20260508074544 | 11 | 70 | 9.7 | 19.3 | 0.00 | 0.00 | 0.00 | 56 | 1022.6 |
| 20260508073045 | 11 | 82 | 9.7 | 16.1 | 0.00 | 0.00 | 0.00 | 63 | 1022.6 |
| 20260508071538 | 11 | 76 | 9.7 | 19.3 | 0.00 | 0.00 | 0.00 | 70 | 1022.4 |
| 20260508070031 | 11 | 117 | 6.4 | 16.1 | 0.00 | 0.00 | 0.00 | 69 | 1022.2 |
| 20260508064531 | 11 | 134 | 6.4 | 14.5 | 0.00 | 0.00 | 0.00 | 70 | 1022.0 |
| 20260508063023 | 11 | 105 | 4.8 | 12.9 | 0.00 | 0.00 | 0.00 | 71 | 1021.9 |
| 20260508061518 | 10 | 78 | 6.4 | 11.3 | 0.00 | 0.00 | 0.00 | 69 | 1021.8 |
| 20260508060021 | 10 | 82 | 3.2 | 9.7 | 0.00 | 0.00 | 0.00 | 74 | 1021.7 |
| 20260508054518 | 9 | 71 | 4.8 | 8.0 | 0.00 | 0.00 | 0.00 | 77 | 1021.5 |
| 20260508053004 | 8 | 92 | 1.6 | 4.8 | 0.00 | 0.00 | 0.00 | 83 | 1021.5 |
| 20260508051600 | 8 | 93 | 1.6 | 4.8 | 0.00 | 0.00 | 0.00 | 84 | 1021.4 |
| 20260508050055 | 6 | 109 | 0.0 | 1.6 | 0.00 | 0.00 | 0.00 | 86 | 1021.4 |
| 20260508044551 | 5 | 109 | 0.0 | 1.6 | 0.00 | 0.00 | 0.00 | 87 | 1021.2 |
| 20260508043055 | 3 | 109 | 0.0 | 0.0 | 0.00 | 0.00 | 0.00 | 89 | 1021.2 |
| 20260508041544 | 2 | 109 | 0.0 | 1.6 | 0.00 | 0.00 | 0.00 | 90 | 1021.1 |
| 20260508040040 | 1 | 17 | 0.0 | 0.0 | 0.00 | 0.00 | 0.00 | 90 | 1021.0 |
| 20260508034547 | 1 | 17 | 0.0 | 0.0 | 0.00 | 0.00 | 0.00 | 91 | 1021.0 |
| 20260508033036 | 0 | 17 | 0.0 | 0.0 | 0.00 | 0.00 | 0.00 | 90 | 1021.0 |
| 20260508031535 | 0 | 17 | 0.0 | 0.0 | 0.00 | 0.00 | 0.00 | 89 | 1020.9 |